| time (UTC) | temp F | wind direction | speed MPH | gust MPH | rain 1hr in | rain 24hr in | rain mn in | humidity % | barometer mb |
| 20260506014538 | 0 | 0.0 | 0.0 | 0.00 | 0.19 | 0.00 | 1003.6 | ||
| 20260506013040 | 0 | 0.0 | 0.0 | 0.00 | 0.19 | 0.00 | 1003.5 | ||
| 20260506011529 | 0 | 0.0 | 0.0 | 0.00 | 0.19 | 0.00 | 1003.3 | ||
| 20260506010024 | 0 | 0.0 | 0.0 | 0.00 | 0.19 | 0.00 | 1003.3 | ||
| 20260506004520 | 0 | 0.0 | 0.0 | 0.00 | 0.19 | 0.00 | 1003.2 | ||
| 20260506003016 | 0 | 0.0 | 0.0 | 0.00 | 0.19 | 0.00 | 1003.1 | ||
| 20260506001512 | 0 | 0.0 | 0.0 | 0.00 | 0.19 | 0.00 | 1003.2 | ||
| 20260506000006 | 0 | 0.0 | 0.0 | 0.00 | 0.19 | 0.00 | 1002.9 | ||
| 20260505234502 | 0 | 0.0 | 0.0 | 0.00 | 0.19 | 0.00 | 1002.9 | ||
| 20260505233058 | 0 | 0.0 | 0.0 | 0.00 | 0.19 | 0.00 | 1002.9 | ||
| 20260505231554 | 0 | 0.0 | 0.0 | 0.00 | 0.19 | 0.00 | 1002.8 | ||
| 20260505230051 | 0 | 0.0 | 0.0 | 0.00 | 0.19 | 0.00 | 1002.8 | ||
| 20260505224545 | 0 | 0.0 | 0.0 | 0.00 | 0.19 | 0.00 | 1002.8 | ||
| 20260505223057 | 0 | 0.0 | 0.0 | 0.00 | 0.19 | 0.00 | 1002.7 | ||
| 20260505221544 | 0 | 0.0 | 0.0 | 0.00 | 0.19 | 0.00 | 1002.6 | ||
| 20260505220032 | 0 | 0.0 | 0.0 | 0.00 | 0.19 | 0.00 | 1002.7 | ||
| 20260505214530 | 0 | 0.0 | 0.0 | 0.00 | 0.19 | 0.19 | 1002.6 | ||
| 20260505213023 | 0 | 0.0 | 0.0 | 0.00 | 0.19 | 0.19 | 1002.4 | ||
| 20260505211519 | 0 | 0.0 | 0.0 | 0.00 | 0.19 | 0.19 | 1002.5 | ||
| 20260505210017 | 0 | 0.0 | 0.0 | 0.00 | 0.19 | 0.19 | 1002.4 | ||
| 20260505204517 | 0 | 0.0 | 0.0 | 0.00 | 0.19 | 0.19 | 1002.3 | ||
| 20260505203005 | 0 | 0.0 | 0.0 | 0.00 | 0.19 | 0.19 | 1002.3 | ||
| 20260505201501 | 0 | 0.0 | 0.0 | 0.00 | 0.19 | 0.19 | 1002.2 | ||
| 20260505200105 | 0 | 0.0 | 0.0 | 0.00 | 0.19 | 0.19 | 1002.1 | ||
| 20260505194602 | 0 | 0.0 | 0.0 | 0.00 | 0.19 | 0.19 | 1002.1 | ||
| 20260505193048 | 0 | 0.0 | 0.0 | 0.00 | 0.19 | 0.19 | 1002.1 | ||
| 20260505191544 | 0 | 0.0 | 0.0 | 0.00 | 0.19 | 0.19 | 1002.0 | ||
| 20260505190046 | 0 | 0.0 | 0.0 | 0.00 | 0.19 | 0.19 | 1001.8 | ||
| 20260505184535 | 0 | 0.0 | 0.0 | 0.00 | 0.19 | 0.19 | 1001.7 | ||
| 20260505183042 | 0 | 0.0 | 0.0 | 0.00 | 0.19 | 0.19 | 1001.6 | ||
| 20260505181527 | 0 | 0.0 | 0.0 | 0.00 | 0.19 | 0.19 | 1001.5 | ||
| 20260505180022 | 0 | 0.0 | 0.0 | 0.00 | 0.19 | 0.19 | 1001.5 | ||
| 20260505174518 | 35 | 300 | 5.0 | 0.0 | 0.00 | 0.19 | 0.19 | 89 | 1001.4 |
| 20260505173021 | 35 | 294 | 5.0 | 0.0 | 0.00 | 0.19 | 0.19 | 89 | 1001.4 |
| 20260505171516 | 36 | 257 | 5.0 | 0.0 | 0.01 | 0.19 | 0.19 | 89 | 1001.2 |
| 20260505170014 | 36 | 254 | 6.0 | 0.0 | 0.05 | 0.19 | 0.19 | 88 | 1001.2 |
| 20260505164514 | 37 | 253 | 5.0 | 0.0 | 0.05 | 0.19 | 0.19 | 87 | 1001.1 |
| 20260505163014 | 37 | 262 | 7.0 | 0.0 | 0.04 | 0.18 | 0.18 | 88 | 1001.0 |
| 20260505161513 | 37 | 273 | 4.0 | 0.0 | 0.04 | 0.18 | 0.18 | 87 | 1000.9 |
| 20260505153059 | 0 | 0.0 | 0.0 | 0.02 | 0.14 | 0.14 | 1000.9 | ||
| 20260505151558 | 0 | 0.0 | 0.0 | 0.02 | 0.14 | 0.14 | 1000.8 | ||
| 20260505124524 | 36 | 221 | 2.0 | 0.0 | 0.02 | 0.12 | 0.12 | 91 | 1000.0 |
| 20260505123022 | 36 | 127 | 1.0 | 0.0 | 0.02 | 0.11 | 0.11 | 92 | 999.8 |
| 20260505121522 | 35 | 146 | 1.0 | 0.0 | 0.00 | 0.09 | 0.09 | 91 | 999.7 |
| 20260505120019 | 35 | 101 | 2.0 | 0.0 | 0.00 | 0.09 | 0.09 | 90 | 999.7 |
| 20260505114517 | 36 | 121 | 2.0 | 0.0 | 0.00 | 0.09 | 0.09 | 85 | 999.6 |
| 20260505113015 | 38 | 202 | 1.0 | 0.0 | 0.00 | 0.09 | 0.09 | 85 | 999.3 |
| 20260505111514 | 38 | 108 | 4.0 | 0.0 | 0.00 | 0.09 | 0.09 | 83 | 999.2 |
| 20260505101513 | 37 | 349 | 5.0 | 0.0 | 0.01 | 0.09 | 0.09 | 84 | 998.8 |
| 20260505100006 | 36 | 360 | 3.0 | 0.0 | 0.02 | 0.09 | 0.09 | 86 | 998.7 |
| 20260505094514 | 37 | 329 | 4.0 | 0.0 | 0.02 | 0.09 | 0.09 | 80 | 998.6 |
| 20260505093003 | 38 | 281 | 4.0 | 0.0 | 0.03 | 0.09 | 0.09 | 80 | 998.4 |
| 20260505091501 | 38 | 298 | 4.0 | 0.0 | 0.04 | 0.09 | 0.09 | 75 | 998.3 |
| 20260505090059 | 38 | 301 | 3.0 | 0.0 | 0.04 | 0.08 | 0.08 | 80 | 998.3 |
| 20260505084557 | 37 | 260 | 5.0 | 0.0 | 0.04 | 0.08 | 0.07 | 79 | 998.3 |
| 20260505083056 | 37 | 300 | 4.0 | 0.0 | 0.03 | 0.06 | 0.06 | 82 | 998.2 |
| 20260505081554 | 36 | 253 | 4.0 | 0.0 | 0.03 | 0.06 | 0.05 | 84 | 998.2 |
| 20260505080057 | 36 | 243 | 6.0 | 0.0 | 0.03 | 0.05 | 0.04 | 86 | 998.2 |
| 20260505074548 | 36 | 267 | 5.0 | 0.0 | 0.03 | 0.06 | 0.03 | 87 | 998.1 |
| 20260505073051 | 35 | 296 | 4.0 | 0.0 | 0.02 | 0.05 | 0.02 | 90 | 998.1 |
| 20260505071541 | 34 | 275 | 1.0 | 0.0 | 0.02 | 0.04 | 0.02 | 94 | 998.0 |
| 20260505070049 | 34 | 287 | 2.0 | 0.0 | 0.01 | 0.03 | 0.01 | 95 | 997.9 |
| 20260505064536 | 33 | 276 | 3.0 | 0.0 | 0.00 | 0.04 | 0.00 | 95 | 997.8 |
| 20260505063034 | 33 | 314 | 2.0 | 0.0 | 0.00 | 0.04 | 0.00 | 96 | 997.8 |
| 20260505061539 | 33 | 323 | 2.0 | 0.0 | 0.00 | 0.04 | 0.00 | 97 | 997.7 |
| 20260505060030 | 32 | 297 | 3.0 | 0.0 | 0.00 | 0.04 | 0.00 | 97 | 997.7 |
| 20260505054535 | 32 | 307 | 3.0 | 0.0 | 0.00 | 0.05 | 0.00 | 97 | 997.6 |
| 20260505053030 | 32 | 308 | 1.0 | 0.0 | 0.00 | 0.05 | 0.00 | 97 | 997.6 |
| 20260505051526 | 32 | 308 | 0.0 | 0.0 | 0.00 | 0.05 | 0.00 | 97 | 997.5 |
| 20260505041532 | 32 | 287 | 0.0 | 0.0 | 0.00 | 0.05 | 0.00 | 97 | 997.3 |
| 20260505040032 | 31 | 1 | 0.0 | 0.0 | 0.00 | 0.05 | 0.00 | 97 | 997.2 |
| 20260505034523 | 31 | 353 | 0.0 | 0.0 | 0.00 | 0.05 | 0.00 | 97 | 997.2 |
| 20260505033020 | 31 | 339 | 0.0 | 0.0 | 0.00 | 0.05 | 0.00 | 97 | 997.2 |
| 20260505031533 | 31 | 300 | 0.0 | 0.0 | 0.00 | 0.05 | 0.00 | 97 | 997.2 |
| 20260505030015 | 31 | 273 | 0.0 | 0.0 | 0.00 | 0.05 | 0.00 | 97 | 997.2 |
| 20260505024514 | 31 | 296 | 1.0 | 0.0 | 0.00 | 0.05 | 0.00 | 97 | 997.1 |
| 20260505023013 | 31 | 281 | 1.0 | 0.0 | 0.00 | 0.05 | 0.00 | 97 | 997.1 |
| 20260505021512 | 31 | 307 | 2.0 | 0.0 | 0.00 | 0.05 | 0.00 | 97 | 997.0 |
| 20260505020010 | 31 | 300 | 2.0 | 0.0 | 0.00 | 0.05 | 0.00 | 97 | 997.0 |